Nashua, NH

7:43 PM EDT on August 19, 2017 (GMT -0400)
Boire

Weather History for KASH - January, 2014

Change the Weather History Date:

Monday, January 20, 2014

  Actual Average Record
Temperature  
Mean Temperature 30 °F -  
Max Temperature 41 °F 33 °F 57 °F (1951)
Min Temperature 18 °F 11 °F -19 °F (1971)
Degree Days  
Heating Degree Days 34    
Moisture  
Dew Point 22 °F    
Average Humidity 64    
Maximum Humidity 87    
Minimum Humidity 49    
Precipitation  
Precipitation 0.18 in - - ()
Sea Level Pressure  
Sea Level Pressure 30.30 in    
Wind  
Wind Speed 6 mph (NW)    
Max Wind Speed 21 mph    
Max Gust Speed 29 mph    
Visibility 10 miles    
Events Rain , Snow    
Averages and records for this station are not official NWS values.
T = Trace of Precipitation, MM = Missing Value Source: NWS Daily Summary

Daily Weather History Graph

Daily Weather History Graph

Search for Another Location

Airport or City:

Trip Planner

Search our weather history database for the weather conditions in past years. The results will help you decide how hot, cold, wet, or windy it might be!

Date:

Astronomy

Jan. 20, 2014 Rise Set
Actual Time 7:10 AM EST 4:43 PM EST
Civil Twilight 6:40 AM EST 5:14 PM EST
Nautical Twilight 6:05 AM EST 5:49 PM EST
Astronomical Twilight 5:31 AM EST 6:22 PM EST
Moon 9:23 PM EST (1/20) 9:02 AM EST (1/20)
Length of Visible Light 10h 34m
Length of Day
9h 32m
Waning Gibbous, 83% of the Moon is Illuminated
Jan 20
Waning Gibbous
Jan 24
Last Quarter
Jan 30
New
Feb 6
First Quarter
Feb 14
Full

Hourly Weather History & Observations

Time (EST) Temp. Windchill Dew Point Humidity Pressure Visibility Wind Dir Wind Speed Gust Speed Precip Events Conditions
12:51 AM 30.0 °F 25.2 °F 21.0 °F 69% 30.26 in 10.0 mi Variable 4.6 mph - N/A   Overcast
1:51 AM 31.1 °F 25.4 °F 22.1 °F 69% 30.29 in 10.0 mi Variable 5.8 mph - N/A   Overcast
2:51 AM 31.1 °F 27.7 °F 22.1 °F 69% 30.30 in 10.0 mi Variable 3.5 mph - N/A   Overcast
3:51 AM 32.0 °F - 22.1 °F 67% 30.30 in 10.0 mi Calm Calm - N/A   Overcast
4:51 AM 32.0 °F 28.7 °F 23.0 °F 69% 30.30 in 10.0 mi Variable 3.5 mph - N/A   Overcast
5:51 AM 32.0 °F - 23.0 °F 69% 30.31 in 10.0 mi Calm Calm - N/A   Overcast
6:51 AM 32.0 °F - 23.0 °F 69% 30.30 in 10.0 mi Calm Calm - N/A   Overcast
7:51 AM 32.9 °F - 23.0 °F 67% 30.30 in 10.0 mi Calm Calm - N/A   Overcast
8:51 AM 32.9 °F - 23.0 °F 67% 30.32 in 10.0 mi Calm Calm - N/A   Overcast
9:51 AM 34.9 °F - 23.0 °F 62% 30.32 in 10.0 mi Calm Calm - N/A   Overcast
10:51 AM 36.9 °F 33.1 °F 24.1 °F 60% 30.29 in 10.0 mi Variable 4.6 mph - 0.00 in Snow Light Snow
11:51 AM 39.9 °F 32.9 °F 23.0 °F 51% 30.26 in 10.0 mi West 11.5 mph 17.3 mph N/A   Partly Cloudy
12:51 PM 41.0 °F 35.8 °F 23.0 °F 49% 30.24 in 10.0 mi WNW 8.1 mph - N/A   Scattered Clouds
1:51 PM 41.0 °F 34.7 °F 23.0 °F 49% 30.23 in 10.0 mi West 10.4 mph 17.3 mph N/A   Scattered Clouds
2:51 PM 39.9 °F 33.9 °F 23.0 °F 51% 30.25 in 10.0 mi West 9.2 mph - 0.06 in   Scattered Clouds
3:51 PM 39.9 °F 36.7 °F 23.0 °F 51% 30.27 in 10.0 mi WNW 4.6 mph 13.8 mph 0.05 in   Mostly Cloudy
4:51 PM 38.8 °F 29.7 °F 25.2 °F 58% 30.32 in 10.0 mi NW 17.3 mph 23.0 mph 0.04 in Rain Light Rain
5:03 PM 35.6 °F 24.5 °F 30.2 °F 81% 29.60 in 2.5 mi NNW 20.7 mph 28.8 mph 0.01 in Snow Light Snow
5:34 PM 33.8 °F 29.6 °F 30.2 °F 87% 29.63 in 6.0 mi WNW 4.6 mph - 0.02 in   Overcast
5:51 PM 34.0 °F 31.0 °F 30.0 °F 85% 30.39 in 10.0 mi WNW 3.5 mph - 0.02 in   Mostly Cloudy
6:51 PM 32.9 °F 26.7 °F 25.2 °F 73% 30.43 in 10.0 mi NW 6.9 mph - 0.01 in   Mostly Cloudy
7:51 PM 32.0 °F 22.5 °F 22.1 °F 67% 30.47 in 10.0 mi North 12.7 mph - 0.00 in   Mostly Cloudy
8:51 PM 29.1 °F 18.4 °F 17.1 °F 61% 30.51 in 10.0 mi NW 13.8 mph 20.7 mph 0.00 in   Mostly Cloudy
9:51 PM 25.2 °F 11.6 °F 12.0 °F 58% 30.57 in 10.0 mi NW 18.4 mph 28.8 mph N/A   Mostly Cloudy
10:51 PM 20.1 °F 6.9 °F 7.2 °F 57% 30.62 in 10.0 mi North 13.8 mph - N/A   Clear
11:51 PM 18.1 °F 5.6 °F 5.0 °F 57% 30.65 in 10.0 mi NW 11.5 mph - N/A   Clear